Weather History for Camp Pendleton, CA

Change the Weather History Date:

Friday, January 25, 2013

  Actual Average Record
Temperature  
Mean Temperature 62 °F -  
Max Temperature 64 °F 64 °F 73 °F (2014)
Min Temperature 59 °F 39 °F 45 °F (2014)
Degree Days  
Heating Degree Days 4    
Growing Degree Days 12 (Base 50)    
Moisture  
Dew Point 56 °F    
Average Humidity 83    
Maximum Humidity 88    
Minimum Humidity 78    
Precipitation  
Precipitation 0.35 in - - ()
Sea Level Pressure  
Sea Level Pressure 30.03 in    
Wind  
Wind Speed 3 mph (NE)    
Max Wind Speed 9 mph    
Max Gust Speed 20 mph    
Visibility 8 miles    
Events Rain    
Averages and records for this station are not official NWS values.
T = Trace of Precipitation, MM = Missing Value Source: NWS Daily Summary

Daily Weather History Graph

Daily Weather History Graph

Search for Another Location

Airport:

Trip Planner

Search our weather history database for the weather conditions in past years. The results will help you decide how hot, cold, wet, or windy it might be!

Date:

Astronomy

Jan. 25, 2013 Rise Set
Actual Time 6:49 AM PST 5:14 PM PST
Civil Twilight 6:22 AM PST 5:41 PM PST
Nautical Twilight 5:52 AM PST 6:11 PM PST
Astronomical Twilight 5:23 AM PST 6:40 PM PST
Moon 4:16 PM PST (1/25) 5:31 AM PST (1/25)
Length of Visible Light 11h 18m
Length of Day
10h 25m
Waxing Gibbous, 98% of the Moon is Illuminated
Jan 25
Waxing Gibbous
Jan 26
Full
Feb 3
Last Quarter
Feb 9
New
Feb 17
First Quarter

Hourly Weather History & Observations

Time (PST) Temp. Dew Point Humidity Pressure Visibility Wind Dir Wind Speed Gust Speed Precip Events Conditions
12:55 AM 61.0 °F 54.0 °F 78% 30.09 in 10.0 mi Calm Calm - N/A   Overcast
1:55 AM 60.1 °F 55.0 °F 83% 30.12 in 4.0 mi SSW 3.5 mph 19.6 mph 0.04 in Rain Light Rain
2:55 AM 60.1 °F 55.0 °F 83% 30.07 in 10.0 mi NNE 4.6 mph - 0.00 in Rain Light Rain
3:55 AM 60.1 °F 54.0 °F 80% 30.05 in 10.0 mi North 3.5 mph - 0.00 in   Overcast
4:55 AM 60.1 °F 54.0 °F 80% 30.05 in - Calm Calm - N/A   Mostly Cloudy
5:55 AM 59.0 °F 54.0 °F 83% 30.06 in 10.0 mi Calm Calm - N/A   Overcast
6:55 AM 60.1 °F 55.0 °F 83% 30.10 in 6.0 mi SE 3.5 mph - 0.00 in   Overcast
7:55 AM 61.0 °F 55.0 °F 81% 30.12 in 6.0 mi East 3.5 mph - 0.00 in Rain Light Rain
8:55 AM 61.0 °F 55.9 °F 83% 30.12 in 5.0 mi NE 3.5 mph - 0.00 in Rain Light Rain
9:54 AM 62.1 °F 57.0 °F 84% 30.12 in 5.0 mi NE 4.6 mph - 0.02 in Rain Light Rain
9:55 AM 62.1 °F 57.0 °F 84% 30.12 in 5.0 mi NE 4.6 mph - 0.02 in Rain Light Rain
10:55 AM 64.0 °F 57.0 °F 78% 30.09 in 6.0 mi NE 9.2 mph - 0.00 in Rain Light Rain
11:54 AM 64.0 °F 57.0 °F 78% 30.05 in 10.0 mi NE 8.1 mph - 0.00 in Rain Light Rain
11:55 AM 64.0 °F 57.0 °F 78% 30.05 in 5.0 mi NE 8.1 mph - 0.00 in Rain Light Rain
12:54 PM 64.9 °F 57.9 °F 78% 30.02 in 5.0 mi NE 6.9 mph - 0.00 in Rain Light Rain
1:54 PM 64.9 °F 59.0 °F 81% 30.01 in 5.0 mi Calm Calm - 0.01 in Rain Light Rain
2:54 PM 64.0 °F 59.0 °F 84% 29.99 in 5.0 mi NE 6.9 mph - 0.04 in Rain Light Rain
3:54 PM 64.0 °F 57.9 °F 80% 29.96 in 5.0 mi NE 6.9 mph - 0.01 in Rain Light Rain
4:54 PM 63.0 °F 57.9 °F 84% 29.95 in 10.0 mi Calm Calm - 0.02 in Rain Light Rain
5:54 PM 62.1 °F 57.9 °F 86% 29.98 in 8.0 mi Calm Calm - 0.03 in Rain Light Rain
6:54 PM 61.0 °F 57.0 °F 87% 29.99 in 9.0 mi Calm Calm - 0.06 in Rain Light Rain
7:13 PM 60.8 °F 57.2 °F 88% 29.97 in 7.0 mi East 6.9 mph - 0.02 in Rain Light Rain
7:33 PM 60.8 °F 57.2 °F 88% 29.97 in 10.0 mi Calm Calm - 0.02 in Rain Light Rain
7:54 PM 61.0 °F 57.0 °F 87% 29.95 in 10.0 mi NE 3.5 mph - 0.02 in   Overcast
8:25 PM 60.8 °F 57.2 °F 88% 29.97 in 10.0 mi Calm Calm - N/A   Overcast
8:54 PM 61.0 °F 55.9 °F 83% 29.97 in 10.0 mi Calm Calm - 0.00 in Rain Light Rain
9:54 PM 60.1 °F 55.9 °F 86% 29.96 in 10.0 mi WSW 3.5 mph - 0.01 in Rain Light Rain
10:54 PM 60.1 °F 55.9 °F 86% 29.96 in 6.0 mi ENE 3.5 mph - 0.04 in Rain Light Rain
11:54 PM 60.1 °F 55.9 °F 86% 29.96 in 7.0 mi Calm Calm - 0.05 in Rain Light Rain